Weather History for KSFF - February, 2014

Change the Weather History Date:

Monday, February 10, 2014

  Actual Average Record
Temperature  
Mean Temperature 27 °F 34 °F  
Max Temperature 30 °F 41 °F 49 °F (2015)
Min Temperature 24 °F 26 °F 21 °F (2001)
Degree Days  
Heating Degree Days 38 31  
Month to date heating degree days 470 319  
Since 1 July heating degree days 4135 4031  
Cooling Degree Days 0 0  
Month to date cooling degree days 0 0  
Year to date cooling degree days 0 0  
Moisture  
Dew Point 21 °F    
Average Humidity 83    
Maximum Humidity 92    
Minimum Humidity 74    
Precipitation  
Precipitation 0.18 in 0.06 in 0.18 in (2014)
Month to date precipitation 0.23 0.60  
Year to date precipitation 1.38 2.55  
Sea Level Pressure  
Sea Level Pressure 30.18 in    
Wind  
Wind Speed 3 mph (East)    
Max Wind Speed 14 mph    
Max Gust Speed 18 mph    
Visibility 6 miles    
Events Fog , Snow    
T = Trace of Precipitation, MM = Missing Value Source: NWS Daily Summary

Daily Weather History Graph

Daily Weather History Graph

Search for Another Location

Airport or City:

Trip Planner

Search our weather history database for the weather conditions in past years. The results will help you decide how hot, cold, wet, or windy it might be!

Date:

Astronomy

Feb. 10, 2014 Rise Set
Actual Time 7:02 AM PST 5:04 PM PST
Civil Twilight 6:30 AM PST 5:36 PM PST
Nautical Twilight 5:54 AM PST 6:13 PM PST
Astronomical Twilight 5:18 AM PST 6:49 PM PST
Moon 1:30 PM PST (2/10) 4:07 AM PST (2/10)
Length of Visible Light 11h 06m
Length of Day
10h 01m
Waxing Gibbous, 85% of the Moon is Illuminated
Feb 10
Waxing Gibbous
Feb 14
Full
Feb 22
Last Quarter
Mar 1
New
Mar 8
First Quarter

Hourly Weather History & Observations

Time (PST) Temp. Windchill Dew Point Humidity Pressure Visibility Wind Dir Wind Speed Gust Speed Precip Events Conditions
12:53 AM 24.1 °F 19.7 °F 18.0 °F 77% 30.23 in 10.0 mi East 3.5 mph - 0.00 in   Overcast
1:53 AM 24.1 °F 19.7 °F 19.0 °F 81% 30.23 in 10.0 mi ENE 3.5 mph - N/A   Overcast
2:53 AM 24.1 °F - 19.0 °F 81% 30.24 in 10.0 mi Calm Calm - N/A   Overcast
3:53 AM 24.1 °F 19.7 °F 19.0 °F 81% 30.26 in 10.0 mi WSW 3.5 mph - N/A   Overcast
4:53 AM 25.0 °F - 19.0 °F 78% 30.25 in 10.0 mi Calm Calm - N/A   Overcast
5:04 AM 25.0 °F - 19.0 °F 78% 30.19 in 10.0 mi Calm Calm - N/A   Overcast
5:53 AM 25.0 °F - 18.0 °F 75% 30.26 in 10.0 mi Calm Calm - N/A   Overcast
6:53 AM 24.1 °F 18.2 °F 18.0 °F 77% 30.25 in 10.0 mi East 4.6 mph - N/A   Overcast
7:53 AM 25.0 °F 19.3 °F 17.1 °F 72% 30.27 in 10.0 mi East 4.6 mph - N/A   Overcast
8:48 AM 24.8 °F 20.5 °F 17.6 °F 74% 30.19 in 1.5 mi East 3.5 mph - 0.00 in Snow Light Snow
8:53 AM 25.0 °F 18.1 °F 18.0 °F 75% 30.27 in 1.5 mi ESE 5.8 mph - 0.00 in Snow Light Snow
9:44 AM 25.0 °F 18.1 °F 19.9 °F 81% 30.17 in 1.2 mi East 5.8 mph - 0.01 in Snow Light Snow
9:53 AM 25.0 °F 17.1 °F 19.9 °F 81% 30.25 in 1.2 mi ESE 6.9 mph - 0.01 in Snow Light Snow
10:11 AM 24.1 °F 16.0 °F 19.9 °F 84% 30.17 in 1.2 mi ESE 6.9 mph - 0.00 in Snow Light Snow
10:53 AM 24.1 °F - 19.9 °F 84% 30.24 in 0.2 mi Calm Calm - 0.02 in Fog , Snow Snow
11:00 AM 24.1 °F 19.7 °F 19.9 °F 84% 30.17 in 0.2 mi ESE 3.5 mph - 0.00 in Fog , Snow Snow
11:53 AM 24.1 °F - 21.9 °F 91% 30.22 in 0.2 mi Calm Calm - 0.08 in Fog , Snow Snow
12:00 PM 25.0 °F 20.7 °F 21.9 °F 88% 30.16 in 0.2 mi West 3.5 mph - 0.00 in Fog , Snow Snow
12:53 PM 25.0 °F - 21.9 °F 88% 30.21 in 0.2 mi Calm Calm - 0.06 in Fog , Snow Heavy Snow
1:12 PM 26.1 °F - 21.9 °F 84% 30.12 in 1.0 mi Calm Calm - 0.01 in Snow Light Snow
1:51 PM 26.6 °F 22.6 °F 21.2 °F 80% 30.11 in 2.0 mi ENE 3.5 mph - 0.01 in Snow Light Snow
1:53 PM 26.1 °F 21.9 °F 21.9 °F 84% 30.18 in 2.5 mi ENE 3.5 mph - 0.01 in Snow Light Snow
1:57 PM 26.1 °F 20.5 °F 21.9 °F 84% 30.10 in 4.0 mi ENE 4.6 mph - 0.00 in   Overcast
2:53 PM 27.0 °F 23.0 °F 21.0 °F 78% 30.17 in 10.0 mi ENE 3.5 mph - 0.00 in   Overcast
3:53 PM 27.0 °F 23.0 °F 21.9 °F 81% 30.15 in 10.0 mi ENE 3.5 mph - N/A   Overcast
4:00 PM 27.0 °F 21.6 °F 21.9 °F 81% 30.08 in 10.0 mi ENE 4.6 mph - N/A   Overcast
4:53 PM 27.0 °F - 23.0 °F 85% 30.14 in 10.0 mi Calm Calm - N/A   Overcast
5:53 PM 27.0 °F - 23.0 °F 85% 30.14 in 10.0 mi Calm Calm - N/A   Overcast
6:53 PM 27.0 °F - 24.1 °F 89% 30.12 in 9.0 mi Calm Calm - N/A   Overcast
7:53 PM 30.0 °F 24.1 °F 26.1 °F 85% 30.09 in 10.0 mi WSW 5.8 mph - N/A   Overcast
8:53 PM 30.0 °F 25.2 °F 27.0 °F 88% 30.10 in 10.0 mi West 4.6 mph - N/A   Overcast
9:53 PM 30.0 °F 24.1 °F 26.1 °F 85% 30.09 in 10.0 mi WSW 5.8 mph - N/A   Overcast
10:53 PM 30.0 °F 24.1 °F 27.0 °F 88% 30.09 in 9.0 mi WSW 5.8 mph - N/A   Overcast
11:53 PM 30.0 °F 23.2 °F 26.1 °F 85% 30.09 in 8.0 mi WSW 6.9 mph - N/A   Overcast